RH
21 17 20 21 21 19 19 20 26 38 30 34 37 34 25 22 18 20 20 20 20 22 20 20 25 30 40 47 53 56 58 64 58 52 53 50 54 49 50 48 57 62 68 76
18 21 20 18 19 16 18 25 38 35 31 33 33 27 24 22 25 24 22 23 26 28 26 28 28 31 48 52 57 57 57 60 60 56 58 58 55 52 52 51 55 57 65 73
24 20 18 15 16 17 17 16 20 30 33 32 33 36 31 23 21 26 30 32 31 31 30 28 33 42 50 55 59 57 62 63 66 70 62 62 60 58 63 65 62 62 67 72
22 22 18 15 13 15 18 14 17 35 33 34 26 30 40 32 26 33 36 35 35 34 31 28 30 40 52 56 57 62 67 65 64 68 69 71 72 73 74 69 65 60 69 73
20 24 24 17 13 13 16 16 15 25 26 20 19 30 41 36 28 38 38 38 37 35 33 32 31 36 42 62 63 64 66 64 65 66 67 67 71 72 71 72 73 72 70 74
20 18 15 17 13 13 16 17 20 22 21 18 20 18 41 33 34 40 39 39 39 36 33 36 38 40 54 61 63 62 63 67 67 68 69 70 82 83 82 82 82 76 74 76
21 16 13 13 12 14 17 15 13 16 20 17 27 23 38 44 44 44 44 41 39 35 42 45 43 58 72 69 70 68 67 71 69 70 71 76 81 80 81 83 81 83 82 82
23 28 16 17 16 16 21 18 18 10 10 15 22 26 34 44 44 43 40 40 37 38 45 40 43 60 69 78 79 77 69 68 68 74 77 78 77 72 77 80 80 85 87 86
19 18 16 21 18 14 18 21 21 29 31 27 21 38 41 45 46 45 43 39 41 43 44 43 43 46 61 66 78 77 70 70 73 70 70 68 73 69 74 80 80 85 83 82
28 13 17 20 16 18 17 18 19 24 22 21 19 30 28 48 50 47 46 43 46 44 45 50 49 53 52 56 72 75 72 75 69 67 65 61 65 64 68 72 77 79 80 81
28 20 13 16 24 21 20 24 32 27 30 24 27 21 48 54 54 51 46 46 50 49 53 55 56 54 55 64 75 80 75 72 72 69 67 68 68 66 62 65 72 80 83 86
33 32 16 23 27 26 24 29 30 25 32 40 39 36 50 52 51 47 47 51 50 55 58 54 58 58 74 86 83 82 74 78 72 68 67 69 70 70 57 64 72 79 83 85
30 24 12 15 25 29 32 32 33 38 36 34 37 26 54 53 51 48 53 53 59 61 60 63 64 69 82 82 80 71 72 70 66 63 66 68 70 74 63 68 73 78 81 83
37 27 18 13 19 35 38 38 34 32 34 30 28 32 62 56 55 50 56 61 62 65 67 78 80 84 83 78 72 69 71 72 67 65 69 76 78 73 72 68 74 77 77 77
31 26 30 30 28 42 40 35 39 38 31 28 27 32 46 56 54 57 59 65 64 69 71 78 82 82 79 73 70 67 65 65 66 67 70 76 72 68 64 67 71 71 71 74
44 38 47 37 48 47 46 38 41 43 41 37 35 36 52 53 52 59 68 66 71 71 77 76 76 78 76 72 74 68 66 68 65 66 68 67 66 64 69 71 70 70 70 73
46 50 46 26 45 30 30 30 40 42 42 35 41 40 54 54 59 62 69 69 73 75 83 82 78 77 71 75 71 66 61 61 62 60 53 55 57 61 70 70 70 72 76 75
52 48 50 48 38 45 28 38 42 42 50 55 55 54 52 55 60 62 63 69 78 81 82 83 76 71 68 64 59 52 47 48 50 51 52 51 58 65 68 72 75 76 75 77
49 51 72 68 56 34 36 52 48 45 40 53 52 55 57 61 55 64 64 72 78 81 81 78 74 71 68 55 45 45 50 51 52 57 59 59 58 66 69 74 75 73 74 72
51 50 44 81 56 48 27 46 42 39 47 58 53 57 58 59 48 52 74 75 74 76 77 75 69 68 61 50 54 56 59 58 62 63 65 60 61 66 75 76 76 69 64 56
55 56 56 65 71 51 36 46 45 51 35 60 57 57 62 56 56 66 75 75 72 73 72 70 67 66 55 57 60 67 66 74 68 61 61 63 62 57 64 66 61 55 51 50
52 68 68 61 71 67 46 48 49 52 68 61 64 63 66 66 70 79 76 74 75 73 71 69 72 67 65 62 59 69 83 77 70 69 71 77 73 62 57 58 53 50 53 54
56 52 59 59 52 52 55 56 62 57 58 62 63 67 68 66 69 81 80 77 78 71 75 75 70 67 67 67 70 78 80 66 67 71 83 78 66 57 49 50 50 52 54 56
54 54 55 55 52 56 57 63 59 57 61 64 65 70 65 71 76 82 80 80 78 80 81 67 65 67 74 70 73 82 85 85 83 81 72 60 58 50 45 47 48 54 60 62
53 59 58 59 63 67 59 60 61 68 71 71 68 65 70 78 81 78 82 76 76 76 73 68 71 74 84 80 84 83 81 74 66 60 55 51 47 46 43 43 62 58 65 63
61 59 63 64 57 72 59 62 66 75 75 70 69 75 74 74 78 74 78 78 77 79 69 70 74 81 86 82 85 81 65 54 52 48 47 52 44 43 40 44 47 57 62 60
Wind_Speed
5 7 6 4 4 4 6 11 10 10 9 16 16 16 12 9 12 13 13 15 16 17 17 17 17 13 12 13 13 14 14 14 12 11 11 9 10 9 9 10 15 15 15 14
6 7 4 5 6 7 5 13 10 10 14 13 13 14 9 9 13 13 14 15 17 19 20 20 18 15 12 12 14 14 14 14 13 11 11 10 10 9 10 10 13 15 16 15
5 3 3 3 5 6 3 5 5 7 7 13 16 7 6 11 15 14 16 14 16 18 20 22 21 15 12 12 12 13 15 16 16 17 11 11 11 11 12 12 13 15 15 16
5 2 3 4 4 1 3 0 5 17 7 5 9 2 7 8 11 14 13 15 16 19 20 21 20 18 15 16 16 17 17 18 16 17 14 17 12 13 11 11 11 13 16 16
1 2 4 3 1 1 3 0 3 8 5 2 5 5 5 7 7 11 12 15 16 17 19 19 20 18 18 14 15 14 14 16 17 18 17 14 16 11 10 10 16 16 15 17
2 2 3 0 2 3 2 4 5 3 3 5 3 3 6 1 4 6 10 13 16 18 19 18 20 18 16 15 16 16 16 16 16 15 17 19 18 16 13 14 12 12 12 12
4 3 3 3 0 1 4 3 0 2 3 2 2 2 5 6 5 7 10 13 16 18 18 19 22 19 15 16 16 15 17 15 16 17 17 18 17 16 15 15 12 15 12 11
1 3 5 7 3 1 4 2 1 3 2 2 2 3 4 7 3 6 9 11 15 17 15 20 19 16 15 14 13 12 15 17 19 17 17 15 15 11 10 12 13 10 10 11
2 1 3 4 3 3 1 3 1 4 1 2 1 3 6 5 3 8 13 15 17 17 18 18 18 18 16 15 13 15 18 17 17 17 15 16 13 16 14 15 13 10 13 12
3 1 2 3 0 7 2 4 1 2 2 4 3 4 2 4 7 11 15 16 15 15 15 16 16 16 14 13 13 15 16 15 17 17 15 14 15 15 14 13 15 16 15 16
2 1 1 1 5 0 2 1 4 2 1 3 4 2 4 5 5 10 12 12 12 14 14 14 15 14 15 12 14 13 13 15 15 15 14 14 15 16 15 13 14 14 15 16
1 3 1 2 2 2 0 1 2 2 4 0 2 3 7 6 4 7 9 10 12 12 12 11 13 15 16 14 11 10 12 13 13 12 13 15 14 15 15 15 15 15 15 16
4 1 1 2 2 1 1 1 3 4 2 7 3 0 7 3 3 5 7 9 10 11 14 14 13 12 12 11 11 13 13 12 12 13 14 14 15 13 15 15 14 14 15 16
3 2 3 3 1 2 3 4 3 3 4 3 9 2 8 3 4 7 7 9 9 12 14 14 13 13 12 12 13 13 13 13 13 14 14 15 14 15 14 14 14 15 15 16
2 3 3 3 3 3 4 9 10 11 7 8 1 3 3 1 4 5 5 6 9 11 12 12 12 12 12 13 13 13 13 14 14 14 14 14 14 13 13 14 14 14 15 15
1 3 1 2 3 2 8 15 11 11 11 14 10 11 5 4 2 1 3 5 8 9 11 12 12 12 12 12 11 12 13 13 12 12 13 13 13 13 13 13 14 14 15 15
3 4 2 3 4 6 8 5 6 4 5 6 7 2 6 6 1 2 3 5 7 9 9 9 10 10 11 11 11 12 11 11 12 13 14 14 13 13 13 13 14 14 14 14
6 4 2 2 4 2 2 0 5 5 3 5 4 6 3 1 2 4 4 4 6 7 8 7 8 9 10 10 10 10 10 11 12 13 13 13 13 13 13 13 13 13 13 15
1 5 3 2 2 7 2 4 5 5 4 10 6 6 2 3 5 4 4 7 7 6 7 6 6 7 9 10 9 9 10 11 12 13 12 13 14 14 14 14 14 13 12 12
4 4 2 3 2 5 1 4 4 3 4 9 8 8 6 5 4 4 4 8 8 7 6 5 5 7 8 8 8 9 10 11 12 12 11 12 12 13 13 13 13 12 12 12
4 2 6 3 4 9 4 5 3 2 1 9 9 5 6 3 3 6 9 8 9 7 6 5 6 7 7 7 7 9 9 11 9 10 10 11 13 13 13 13 12 12 12 12
8 7 4 4 5 9 7 5 6 1 2 7 6 5 5 3 4 9 10 8 8 6 4 5 5 6 6 6 6 8 8 7 8 9 10 10 10 10 10 13 12 13 13 13
5 5 5 10 6 1 4 1 2 3 5 5 7 7 7 6 6 10 9 8 7 6 5 4 5 6 7 8 8 7 7 7 8 9 8 10 10 10 11 11 12 10 13 12
3 4 4 2 3 5 6 3 4 3 5 8 8 9 6 5 7 10 9 9 8 5 4 4 6 7 7 7 7 5 4 4 6 8 9 9 10 10 10 8 9 10 11 12
2 6 4 5 5 3 9 8 8 8 10 10 8 6 7 8 11 10 9 8 8 6 5 5 6 6 5 5 7 6 6 7 8 8 9 9 8 9 9 8 9 9 11 13
7 6 6 6 5 2 1 8 13 12 10 10 9 8 8 10 9 9 8 7 7 7 6 6 6 6 5 6 7 7 7 9 9 8 8 8 7 7 7 7 7 12 13 16
Wind_Direction
21 82 75 57 57 105 102 94 105 132 135 68 95 102 99 81 67 56 50 43 29 20 10 8 6 3 9 19 15 19 18 14 8 7 5 359 359 357 358 354 352 352 344 343
70 83 109 83 79 92 102 106 90 68 105 104 122 108 103 74 61 51 41 32 22 17 15 9 4 8 23 20 16 14 15 15 15 6 5 0 350 353 353 355 347 353 345 340
100 110 138 100 62 103 50 95 163 151 100 116 129 130 139 90 65 55 44 42 37 27 16 11 8 16 10 11 7 8 14 16 18 9 7 2 358 356 358 359 347 344 342 342
74 31 107 89 69 16 138 129 136 145 144 185 208 157 199 132 67 50 43 34 23 14 7 4 2 359 355 8 10 14 16 17 16 14 12 13 3 352 351 349 344 342 344 345
98 59 69 78 52 296 99 259 147 183 199 191 168 227 142 187 60 41 30 21 14 7 1 357 360 358 357 15 14 15 19 18 18 17 13 7 5 358 348 348 346 348 347 353
57 353 44 41 122 59 113 104 62 81 146 228 114 252 164 77 55 37 19 10 4 1 359 360 2 357 13 15 14 14 17 21 17 16 16 12 12 3 358 357 347 350 351 350
7 12 338 24 165 115 62 69 165 197 205 264 67 270 53 117 76 35 5 -0 0 360 4 5 3 12 22 20 15 12 12 18 15 18 18 20 16 9 359 357 351 354 351 351
111 176 1 336 56 37 38 30 102 285 253 319 296 232 137 136 89 34 11 3 2 5 5 4 2 10 13 19 14 12 13 14 17 20 19 20 16 9 3 360 358 353 350 351
164 118 330 46 358 350 96 60 67 105 55 278 145 110 179 171 47 17 9 7 5 5 6 3 2 360 4 7 13 11 12 19 20 17 16 13 16 17 11 7 1 355 357 356
167 97 8 322 197 55 33 120 179 59 264 267 217 241 224 182 6 3 5 3 1 359 1 3 1 357 356 357 14 17 18 22 16 19 19 19 17 15 11 6 4 4 2 3
102 68 129 309 20 28 94 122 64 96 239 263 302 194 127 104 33 2 357 353 351 354 357 356 356 354 357 17 24 27 21 20 20 20 16 19 20 18 13 10 8 5 1 5
32 113 11 51 65 244 350 141 159 210 191 25 347 271 128 85 51 3 349 350 353 356 351 351 1 9 36 28 25 28 25 27 20 19 13 13 12 16 13 13 9 6 5 8
178 72 305 171 173 127 58 76 110 101 100 207 215 223 171 77 25 1 358 2 1 357 7 10 17 26 22 24 24 23 26 24 16 13 14 16 17 21 16 14 9 8 9 9
89 134 230 233 127 120 199 221 199 175 194 208 236 268 194 235 335 8 11 6 12 19 25 23 34 33 26 26 20 18 20 17 11 11 14 14 18 12 11 16 12 14 12 12
126 213 207 248 233 207 238 239 210 219 231 239 43 213 168 78 0 13 12 6 27 28 28 23 22 23 25 19 19 17 18 13 12 16 16 14 12 19 16 16 15 11 14 10
37 172 146 250 94 174 255 256 246 241 246 252 258 275 144 128 96 51 31 23 33 23 27 21 23 20 20 21 17 12 13 17 17 16 15 13 12 16 17 16 16 16 11 12
142 141 118 257 344 299 264 248 193 191 215 223 216 196 164 181 160 106 45 36 22 33 35 22 22 18 16 21 16 18 11 15 21 22 19 15 14 16 18 16 12 9 11 8
141 112 60 292 338 257 65 249 227 210 213 171 126 172 181 94 88 135 76 43 40 38 41 35 21 21 24 25 24 26 24 28 31 28 21 19 17 17 14 14 14 11 6 8
47 127 102 284 246 309 197 178 168 196 239 192 182 173 161 142 150 169 102 87 74 59 63 43 33 27 30 37 43 42 33 33 34 30 21 15 17 16 14 13 8 8 9 10
75 71 131 135 236 256 107 178 167 148 270 180 184 182 188 177 246 133 128 109 94 76 69 53 34 46 50 47 39 42 35 34 31 29 21 19 17 20 13 9 8 4 10 13
148 144 203 159 253 278 202 162 163 237 59 165 183 165 178 233 47 111 122 101 94 81 60 66 61 64 62 48 33 38 36 35 29 28 23 22 24 23 15 11 10 10 9 13
175 159 188 168 214 270 153 123 203 85 80 147 153 154 173 141 142 133 126 120 102 83 86 87 80 63 48 26 18 24 29 18 22 23 17 19 20 21 18 14 12 14 13 14
204 198 184 202 218 93 200 27 95 143 148 152 151 150 149 165 186 150 138 129 118 111 114 100 84 71 47 39 36 33 21 37 34 34 21 22 21 17 18 15 15 13 15 15
230 171 230 184 193 217 217 183 160 157 128 132 126 141 147 188 159 143 136 134 125 122 116 109 89 70 54 42 43 25 15 38 44 33 25 23 21 16 19 21 17 18 15 14
216 157 184 255 250 279 244 208 164 128 128 127 134 138 159 154 148 145 141 135 121 127 128 99 89 80 63 53 49 23 30 38 46 39 30 26 24 16 20 30 22 22 28 22
186 188 187 226 202 190 186 191 160 154 149 145 145 141 153 149 145 143 133 129 138 141 126 107 98 95 75 64 52 27 37 50 45 42 31 25 25 20 21 20 25 41 27 27